sat.trackr.live / text

‹ back to catalog

STARLINK-35841

NORAD 67086 · 2025-298M

PAYLOAD ACTIVE UNKNOWN

§ Identity

Operator
Country
US
Launch date
2025-12-14
Launch site
AFWTR
Launch vehicle
Mass (kg)
RCS (m²)

Purposes: comms

External: N2YO · Heavens-Above · Gunter

§ Orbital elements

Epoch: 2026-05-25T02:55:13.044000Z

Period
96.11 min
Inclination
70.0009°
Eccentricity
0.0003716
Mean motion
14.98332874 rev/d
Perigee alt
569.5 km
Apogee alt
574.6 km
Semi-major
6,950.2 km
B*
3.2436e-4
RAAN
181.8393°
Arg perigee
265.4484°
Mean anomaly
94.6250°
Rev number
2,466

§ Raw data

STARLINK-358411 67086U 25298M   26145.12167875  .00003780  00000+0  32436-3 0  99962 67086  70.0009 181.8393 0003716 265.4484  94.6250 14.98332874 24661

JSON: /api/v1/satellites/67086 · /tle

For live sub-satellite position, see the globe view (requires WebGL).

§ Visibility from observer

Set your observer location to see the next 7 days of passes ≥ 10°. The values pass through the URL so the page stays shareable.

No JS? Fill the form by hand. The geolocation button needs JavaScript.